Location: ?????????
(54.7630°N, 39.4991°E)
Time: 07:54:39
(UTC+00:00)

USA 229 DEB - Pass Details

Date: 14 April 2026
Orbit: 844 x 1364 km, 63.4° (Epoch: 10 January)

Event Time Altitude Azimuth Distance (km) Brightness Sun altitude
Rises 21:51:16 0° 307° (NW) 3,861 7.0 -25.3°
Reaches altitude 10° 21:53:47 10° 309° (NW) 2,975 6.4 -25.2°
Maximum altitude 22:01:00 78° 36° (NE) 1,240 4.0 -25.1°
Drops below altitude 10° 22:09:06 10° 124° (SE) 3,322 6.1 -24.8°
Sets 22:12:04 0° 126° (SE) 4,334 6.7 -24.7°
